Regional Weather Roundup
Issued by NWS

Home | Current Version | Previous Version | Text Only | Print | Product List | Glossary On
Versions: 1 2 3 4 5 6 7 8 9 10 11 12 13 14 15 16 17 18 19 20 21 22 23 24 25 26 27 28 29 30 31 32 33 34 35 36 37 38 39 40 41 42 43 44 45 46 47 48 49 50
000
ASUS44 KOUN 240910
RWROK

WEATHER ROUNDUP FOR OKLAHOMA
NATIONAL WEATHER SERVICE NORMAN OK
400 AM CDT THU AUG 24 2017

NOTE: "FAIR" INDICATES FEW OR NO CLOUDS BELOW 12,000 FEET WITH NO
      SIGNIFICANT WEATHER AND/OR OBSTRUCTIONS TO VISIBILITY.

OKZ001>007-009>012-014-015-017-241000-
NORTHWEST OKLAHOMA AND THE PANHANDLE

CITY           SKY/WX    TMP DP  RH WIND       PRES   REMARKS
GAGE           PTCLDY    63  60  90 CALM      30.06F
GUYMON         CLOUDY    67  67 100 S10       30.07F
ENID/WOODRING  CLEAR     63  59  88 CALM      30.02S
$$

OKZ016-021>023-033>039-044-045-241000-
SOUTHWEST OKLAHOMA

CITY           SKY/WX    TMP DP  RH WIND       PRES   REMARKS
LAWTON/REGL    PTCLDY    69  68  96 CALM      30.00S
LAWTON/FT SILL CLOUDY    68  68  99 NE5       29.99F
FREDERICK      CLEAR     70  69  97 NE6       29.98S
CLINTON        CLEAR     67  62  84 E7        30.06S
HOBART         CLOUDY    68  65  90 NE7       30.04S
ALTUS AFB      CLOUDY    68  68  99 NE5       30.01F
$$

OKZ018>020-024>031-241000-
CENTRAL OKLAHOMA

CITY           SKY/WX    TMP DP  RH WIND       PRES   REMARKS
OKLAHOMA CITY  CLOUDY    66  59  78 E3        30.02F
OKC/WILEY POST PTCLDY    66  60  81 CALM      30.02F
OKC/TINKER AFB CLOUDY    65  58  79 E8        30.02S
STILLWATER     CLEAR     61  57  87 NE5       30.02F
GUTHRIE        CLEAR     62  59  90 CALM      30.02F
$$

OKZ008-013-054>072-241000-
NORTHEAST OKLAHOMA

CITY           SKY/WX    TMP DP  RH WIND       PRES   REMARKS
TULSA          MOCLDY    65  62  90 CALM      30.01S
TULSA/JONES    MOCLDY    68  59  73 NE5       30.02S
PONCA CITY     CLEAR     59  55  87 CALM      30.03F
BARTLESVILLE   CLEAR     57  55  93 CALM      30.05S
MUSKOGEE       PTCLDY    70  67  90 E6        30.02S
$$

OKZ032-040>043-046>053-073>077-241000-
SOUTH CENTRAL/SOUTHEAST OKLAHOMA

CITY           SKY/WX    TMP DP  RH WIND       PRES   REMARKS
ARDMORE/DWNTWN MOCLDY    72  70  94 E3        29.98S
MCALESTER      MOCLDY    72  70  93 NE3       30.01R FOG
$$





USA.gov is the U.S. government's official web portal to all federal, state and local government web resources and services.